Voltar ao catálogo

ERS 1 DEB

AtivoSSO
NORAD 35259·DEBRIS·🇪🇺 EU

Lançado Jul 17, 1991 de Guiana Space Centre

Loading…

Próximas Passagens (próximas 24 horas)

TLE

AtualizadoSource: Space-Track

Época: Sep 14, 2026, 15:00 UTC

1 35259U 91050N   26257.62533238  .00001793  00000-0  35020-3 0  9996
2 35259  98.4812 306.6503 0013288 305.8632 215.2922 14.64172972187990

Acompanhe ERS 1 DEB em tempo real com AllMySat

Download on the App Store